When you browse on this site, cookies collect data to enhance your experience and personalize the content and advertising you see.
Visit our Privacy Policy to learn more. By continuing to use the site, you agree to this use of cookies and data.
  • In Hungary
  • List of Countries
  • For 7 days
  • Water Temperature
  • Satellite Maps
  • Weather Map
  • News
  • Weather Widgets
  • user-avatar
    Login

    Hourly Weather Liege

    Today, 17 November, Saturday

    Time Temperature Precipitation Wind Pressure Humidity
    00:00 +4°C° 0 mm 2 mps 761 mmHg 77%
    01:00 +4°C° 0 mm 2 mps 761 mmHg 78%
    02:00 +3°C° 0 mm 3 mps 761 mmHg 80%
    03:00 +2°C° 0 mm 3 mps 761 mmHg 82%
    04:00 +2°C° 0 mm 3 mps 761 mmHg 82%
    05:00 +2°C° 0 mm 3 mps 761 mmHg 83%
    06:00 +2°C° 0 mm 3 mps 761 mmHg 84%
    07:00 +3°C° 0 mm 4 mps 761 mmHg 78%
    08:00 +4°C° 0 mm 4 mps 761 mmHg 73%
    09:00 +5°C° 0 mm 5 mps 762 mmHg 68%
    10:00 +6°C° 0 mm 5 mps 762 mmHg 63%
    11:00 +7°C° 0 mm 5 mps 761 mmHg 58%
    12:00 +8°C° 0 mm 5 mps 761 mmHg 54%
    13:00 +8°C° 0 mm 5 mps 761 mmHg 55%
    14:00 +8°C° 0 mm 5 mps 761 mmHg 57%
    15:00 +7°C° 0 mm 4 mps 761 mmHg 58%
    16:00 +6°C° 0 mm 4 mps 761 mmHg 59%
    17:00 +5°C° 0 mm 4 mps 761 mmHg 61%
    18:00 +4°C° 0 mm 4 mps 761 mmHg 62%
    19:00 +4°C° 0 mm 4 mps 761 mmHg 62%
    20:00 +4°C° 0 mm 4 mps 762 mmHg 62%
    21:00 +3°C° 0 mm 4 mps 762 mmHg 62%
    22:00 +3°C° 0 mm 4 mps 762 mmHg 63%
    23:00 +3°C° 0 mm 4 mps 762 mmHg 63%

    Tomorrow, 18 November, Sunday

    Time Temperature Precipitation Wind Pressure Humidity
    00:00 +1°C° 0 mm 4 mps 762 mmHg 64%
    01:00 +1°C° 0 mm 4 mps 762 mmHg 65%
    02:00 +1°C° 0 mm 4 mps 761 mmHg 65%
    03:00 +1°C° 0 mm 3 mps 761 mmHg 65%
    04:00 0°C° 0 mm 4 mps 761 mmHg 64%
    05:00 0°C° 0 mm 4 mps 761 mmHg 63%
    06:00 0°C° 0 mm 4 mps 761 mmHg 62%
    07:00 +1°C° 0 mm 4 mps 761 mmHg 59%
    08:00 +3°C° 0 mm 4 mps 761 mmHg 56%
    09:00 +2°C° 0 mm 5 mps 761 mmHg 53%
    10:00 +5°C° 0 mm 5 mps 761 mmHg 52%
    11:00 +6°C° 0 mm 5 mps 761 mmHg 50%
    12:00 +7°C° 0 mm 5 mps 760 mmHg 48%
    13:00 +6°C° 0 mm 5 mps 760 mmHg 49%
    14:00 +6°C° 0 mm 4 mps 760 mmHg 49%
    15:00 +6°C° 0 mm 4 mps 759 mmHg 49%
    16:00 +5°C° 0 mm 4 mps 759 mmHg 49%
    17:00 +4°C° 0 mm 4 mps 759 mmHg 48%
    18:00 +3°C° 0 mm 4 mps 759 mmHg 47%
    19:00 +1°C° 0 mm 4 mps 759 mmHg 49%
    20:00 +1°C° 0 mm 4 mps 759 mmHg 50%
    21:00 0°C° 0 mm 4 mps 759 mmHg 51%
    22:00 0°C° 0 mm 4 mps 759 mmHg 59%
    23:00 0°C° 0 mm 4 mps 759 mmHg 67%

    Day after tomorrow, 19 November, Monday

    Time Temperature Precipitation Wind Pressure Humidity
    00:00 0°C° 0 mm 4 mps 758 mmHg 74%
    01:00 0°C° 0 mm 4 mps 758 mmHg 80%
    02:00 0°C° 0 mm 4 mps 758 mmHg 85%
    03:00 0°C° 0 mm 4 mps 757 mmHg 90%
    04:00 0°C° 0 mm 4 mps 757 mmHg 90%
    05:00 +1°C° 0 mm 4 mps 757 mmHg 89%
    06:00 +1°C° 0 mm 5 mps 756 mmHg 89%
    07:00 +2°C° 0 mm 5 mps 756 mmHg 85%
    08:00 +2°C° 0 mm 6 mps 756 mmHg 82%
    09:00 +3°C° 0 mm 6 mps 756 mmHg 78%
    10:00 +3°C° 0 mm 6 mps 755 mmHg 73%
    11:00 +4°C° 0 mm 7 mps 755 mmHg 68%
    12:00 +5°C° 0 mm 7 mps 754 mmHg 63%
    13:00 +4°C° 0.1 mm 6 mps 754 mmHg 65%
    14:00 +4°C° 0.1 mm 6 mps 753 mmHg 67%
    15:00 +4°C° 0.1 mm 6 mps 753 mmHg 70%
    16:00 +3°C° 0.1 mm 5 mps 753 mmHg 73%
    17:00 +2°C° 0.1 mm 5 mps 752 mmHg 77%
    18:00 +1°C° 0.1 mm 4 mps 752 mmHg 80%
    19:00 +1°C° 0 mm 4 mps 752 mmHg 81%
    20:00 +1°C° 0 mm 4 mps 752 mmHg 81%
    21:00 0°C° 0 mm 4 mps 751 mmHg 81%
    22:00 0°C° 0 mm 4 mps 751 mmHg 81%
    23:00 0°C° 0 mm 5 mps 751 mmHg 81%

    20 November, Tuesday

    Time Temperature Precipitation Wind Pressure Humidity
    00:00 -1°C° 0 mm 5 mps 750 mmHg 80%
    01:00 0°C° 0 mm 5 mps 750 mmHg 79%
    02:00 0°C° 0 mm 5 mps 749 mmHg 78%
    03:00 0°C° 0 mm 5 mps 749 mmHg 77%
    04:00 0°C° 0 mm 5 mps 749 mmHg 76%
    05:00 0°C° 0 mm 5 mps 748 mmHg 75%
    06:00 0°C° 0 mm 5 mps 748 mmHg 75%
    07:00 -1°C° 0 mm 6 mps 748 mmHg 73%
    08:00 +1°C° 0 mm 6 mps 748 mmHg 71%
    09:00 +1°C° 0 mm 6 mps 747 mmHg 70%
    10:00 +1°C° 0 mm 6 mps 747 mmHg 68%
    11:00 +2°C° 0 mm 6 mps 746 mmHg 67%
    12:00 +2°C° 0 mm 6 mps 746 mmHg 66%
    13:00 +2°C° 0 mm 5 mps 746 mmHg 67%
    14:00 +2°C° 0 mm 5 mps 745 mmHg 68%
    15:00 +2°C° 0 mm 5 mps 745 mmHg 70%
    16:00 +1°C° 0 mm 4 mps 745 mmHg 73%
    17:00 +1°C° 0 mm 4 mps 745 mmHg 75%
    18:00 +1°C° 0 mm 4 mps 745 mmHg 78%
    19:00 +1°C° 0 mm 4 mps 745 mmHg 80%
    20:00 0°C° 0 mm 4 mps 745 mmHg 81%
    21:00 +1°C° 0 mm 3 mps 746 mmHg 82%
    22:00 +1°C° 0 mm 3 mps 746 mmHg 84%
    23:00 +1°C° 0 mm 3 mps 746 mmHg 85%

    21 November, Wednesday

    Time Temperature Precipitation Wind Pressure Humidity
    00:00 +2°C° 0 mm 2 mps 746 mmHg 87%
    01:00 +2°C° 0.1 mm 2 mps 746 mmHg 88%
    02:00 +2°C° 0.1 mm 2 mps 746 mmHg 89%
    03:00 +2°C° 0.1 mm 1 mps 746 mmHg 90%
    04:00 +2°C° 0.2 mm 1 mps 746 mmHg 91%
    05:00 +2°C° 0.2 mm 1 mps 746 mmHg 92%
    06:00 +1°C° 0.2 mm 0 mps 746 mmHg 93%
    07:00 +2°C° 0.2 mm 1 mps 746 mmHg 92%
    08:00 +3°C° 0.2 mm 1 mps 747 mmHg 91%
    09:00 +3°C° 0.2 mm 1 mps 747 mmHg 89%
    10:00 +2°C° 0.2 mm 2 mps 747 mmHg 88%
    11:00 +3°C° 0.2 mm 2 mps 747 mmHg 86%
    12:00 +2°C° 0.2 mm 3 mps 748 mmHg 84%
    13:00 +2°C° 0.1 mm 3 mps 748 mmHg 84%
    14:00 +2°C° 0.1 mm 3 mps 748 mmHg 85%
    15:00 +3°C° 0.1 mm 2 mps 748 mmHg 85%
    16:00 +1°C° 0 mm 3 mps 748 mmHg 86%
    17:00 +1°C° 0 mm 3 mps 749 mmHg 87%
    18:00 0°C° 0 mm 3 mps 749 mmHg 88%
    19:00 0°C° 0 mm 3 mps 750 mmHg 88%
    20:00 -1°C° 0 mm 3 mps 750 mmHg 88%
    21:00 -1°C° 0 mm 3 mps 751 mmHg 88%
    22:00 -1°C° 0 mm 3 mps 751 mmHg 88%
    23:00 -1°C° 0 mm 3 mps 752 mmHg 88%

    22 November, Thursday

    Time Temperature Precipitation Wind Pressure Humidity
    00:00 -2°C° 0 mm 3 mps 752 mmHg 89%
    01:00 -2°C° 0 mm 3 mps 753 mmHg 89%
    02:00 -2°C° 0 mm 3 mps 753 mmHg 89%
    03:00 -2°C° 0 mm 3 mps 753 mmHg 90%
    04:00 -2°C° 0 mm 3 mps 754 mmHg 90%
    05:00 -2°C° 0 mm 2 mps 754 mmHg 90%
    06:00 -3°C° 0 mm 2 mps 755 mmHg 90%
    07:00 -1°C° 0 mm 2 mps 755 mmHg 85%
    08:00 +1°C° 0 mm 2 mps 756 mmHg 81%
    09:00 +1°C° 0 mm 3 mps 756 mmHg 76%
    10:00 +3°C° 0 mm 2 mps 756 mmHg 73%
    11:00 +4°C° 0 mm 2 mps 756 mmHg 70%
    12:00 +6°C° 0 mm 2 mps 756 mmHg 67%
    13:00 +5°C° 0 mm 2 mps 756 mmHg 72%
    14:00 +5°C° 0 mm 2 mps 756 mmHg 77%
    15:00 +4°C° 0 mm 2 mps 756 mmHg 81%
    16:00 +3°C° 0 mm 2 mps 757 mmHg 84%
    17:00 +2°C° 0 mm 2 mps 757 mmHg 87%
    18:00 +1°C° 0 mm 2 mps 757 mmHg 90%
    19:00 +1°C° 0 mm 2 mps 757 mmHg 90%
    20:00 +1°C° 0 mm 2 mps 758 mmHg 90%
    21:00 +2°C° 0 mm 1 mps 758 mmHg 90%
    22:00 +1°C° 0 mm 1 mps 758 mmHg 90%
    23:00 +1°C° 0 mm 1 mps 758 mmHg 90%
    Show more